Location: Moscow
(55.7500°N, 37.5830°E)
Time: 12:34:01
(UTC+03:00)

S-56A Canister/Altair - Pass Details

Date: 07 December 2021
Orbit: 633 x 2499 km, 38.9° (Epoch: 17 January)

Event Time Altitude Azimuth Distance (km) Brightness Sun altitude
Rises 02:41:35 0° 252° (WSW) 4,649 - -48.0°
Reaches altitude 10° 02:46:12 10° 236° (SW) 3,275 - -47.4°
Maximum altitude 02:50:59 18° 198° (SSW) 2,348 - -46.9°
Drops below altitude 10° 02:54:53 10° 158° (SSE) 2,554 - -46.4°
Sets 02:57:53 0° 138° (SE) 3,273 - -46.1°
